Madisonville, KY

12:42 AM CST on December 06, 2016 (GMT -0600)
Madisonville

Weather History for K2I0 - January, 2014

Change the Weather History Date:

Wednesday, January 8, 2014

  Actual Average (KOWB) Record (KOWB)
Temperature  
Mean Temperature 28 °F -  
Max Temperature 37 °F 36 °F 69 °F (1965)
Min Temperature 19 °F 19 °F -15 °F (1942)
Degree Days  
Heating Degree Days 37    
Moisture  
Dew Point 19 °F    
Average Humidity 66    
Maximum Humidity 88    
Minimum Humidity 50    
Precipitation  
Precipitation 0.00 in - - ()
Sea Level Pressure  
Sea Level Pressure 30.43 in    
Wind  
Wind Speed 8 mph (SW)    
Max Wind Speed 15 mph    
Max Gust Speed 18 mph    
Visibility 10 miles    
Events Snow    
Averages and records for this station are not official NWS values.
T = Trace of Precipitation, MM = Missing Value Source: NWS Daily Summary

Daily Weather History Graph

Daily Weather History Graph

Search for Another Location

Airport or City:

Trip Planner

Search our weather history database for the weather conditions in past years. The results will help you decide how hot, cold, wet, or windy it might be!

Date:

Astronomy

Jan. 08, 2014 Rise Set
Actual Time 7:04 AM CST 4:48 PM CST
Civil Twilight 6:35 AM CST 5:17 PM CST
Nautical Twilight 6:02 AM CST 5:50 PM CST
Astronomical Twilight 5:31 AM CST 6:21 PM CST
Moon 11:37 AM CST (1/8) 12:13 AM CST (1/8)
Length of Visible Light 10h 42m
Length of Day
9h 44m
First Quarter, 56% of the Moon is Illuminated
Jan 8
First Quarter
Jan 15
Full
Jan 23
Last Quarter
Jan 30
New
Feb 6
First Quarter

Hourly Weather History & Observations

Time (CST) Temp. Windchill Dew Point Humidity Pressure Visibility Wind Dir Wind Speed Gust Speed Precip Events Conditions
12:15 AM 19.8 °F 10.8 °F 9.7 °F 65% 30.40 in 10.0 mi SSW 6.9 mph - N/A   Clear
12:35 AM 20.1 °F 10.3 °F 10.0 °F 65% 30.39 in 10.0 mi SSW 8.1 mph - N/A   Clear
12:55 AM 20.7 °F 9.5 °F 10.0 °F 64% 30.40 in 10.0 mi SSW 10.4 mph - N/A   Clear
1:15 AM 21.0 °F 9.9 °F 10.4 °F 64% 30.40 in 10.0 mi SSW 10.4 mph 16.1 mph N/A   Clear
1:35 AM 21.2 °F 10.9 °F 10.4 °F 63% 30.40 in 10.0 mi SW 9.2 mph - N/A   Clear
1:55 AM 21.2 °F 10.9 °F 10.8 °F 64% 30.41 in 10.0 mi SW 9.2 mph - N/A   Clear
2:15 AM 21.4 °F 10.4 °F 10.9 °F 64% 30.41 in 10.0 mi SW 10.4 mph - N/A   Clear
2:35 AM 21.7 °F 11.5 °F 11.1 °F 64% 30.42 in 10.0 mi SSW 9.2 mph - N/A   Clear
2:55 AM 21.9 °F 11.7 °F 11.5 °F 64% 30.41 in 10.0 mi SSW 9.2 mph - N/A   Clear
3:15 AM 22.1 °F 11.3 °F 11.7 °F 64% 30.41 in 10.0 mi SW 10.4 mph - N/A   Clear
3:35 AM 22.1 °F 10.6 °F 11.8 °F 65% 30.41 in 10.0 mi SW 11.5 mph - N/A   Scattered Clouds
3:55 AM 22.6 °F 11.3 °F 12.4 °F 65% 30.41 in 10.0 mi SW 11.5 mph - N/A   Mostly Cloudy
4:15 AM 22.8 °F 12.2 °F 12.4 °F 64% 30.41 in 10.0 mi SW 10.4 mph - N/A   Overcast
4:35 AM 23.0 °F 11.7 °F 12.6 °F 64% 30.40 in 10.0 mi SW 11.5 mph - N/A   Overcast
4:55 AM 23.0 °F 13.1 °F 12.7 °F 65% 30.40 in 10.0 mi SW 9.2 mph - N/A   Scattered Clouds
5:15 AM 23.2 °F 12.6 °F 12.7 °F 64% 30.40 in 10.0 mi SW 10.4 mph - N/A   Scattered Clouds
5:35 AM 23.0 °F 12.4 °F 13.1 °F 66% 30.41 in 10.0 mi SW 10.4 mph - N/A   Scattered Clouds
6:15 AM 23.5 °F 13.7 °F 12.9 °F 64% 30.40 in 10.0 mi SW 9.2 mph - N/A   Clear
6:35 AM 23.0 °F 13.1 °F 13.5 °F 67% 30.42 in 10.0 mi SW 9.2 mph - N/A   Clear
6:55 AM 23.2 °F 13.3 °F 13.1 °F 65% 30.43 in 10.0 mi SW 9.2 mph - N/A   Clear
7:15 AM 23.0 °F 13.1 °F 13.1 °F 66% 30.43 in 10.0 mi SW 9.2 mph - N/A   Clear
7:35 AM 23.5 °F 14.5 °F 13.8 °F 66% 30.44 in 10.0 mi SW 8.1 mph - N/A   Clear
7:55 AM 24.8 °F 15.3 °F 14.4 °F 65% 30.44 in 10.0 mi SW 9.2 mph - N/A   Clear
8:15 AM 25.9 °F 16.0 °F 14.4 °F 62% 30.45 in 10.0 mi SW 10.4 mph - N/A   Clear
8:35 AM 27.1 °F 17.5 °F 14.9 °F 60% 30.46 in 10.0 mi SW 10.4 mph 16.1 mph N/A   Clear
8:55 AM 27.5 °F 18.6 °F 14.7 °F 59% 30.46 in 10.0 mi SW 9.2 mph - N/A   Clear
9:15 AM 28.2 °F 19.5 °F 15.4 °F 59% 30.46 in 10.0 mi SW 9.2 mph - N/A   Mostly Cloudy
9:35 AM 29.1 °F 20.0 °F 16.0 °F 58% 30.47 in 10.0 mi SW 10.4 mph - N/A   Overcast
9:55 AM 30.2 °F 21.3 °F 17.2 °F 59% 30.48 in 10.0 mi WSW 10.4 mph - N/A   Scattered Clouds
10:15 AM 31.1 °F 20.5 °F 17.1 °F 56% 30.48 in 10.0 mi SW 15.0 mph 18.4 mph N/A   Clear
10:35 AM 31.6 °F 21.6 °F 17.6 °F 56% 30.48 in 10.0 mi WSW 13.8 mph - N/A   Clear
10:55 AM 31.8 °F 22.8 °F 17.6 °F 56% 30.46 in 10.0 mi SW 11.5 mph - N/A   Clear
11:15 AM 32.0 °F 23.0 °F 17.4 °F 55% 30.45 in 10.0 mi SW 11.5 mph - N/A   Clear
11:35 AM 32.4 °F 24.0 °F 18.0 °F 55% 30.44 in 10.0 mi SSW 10.4 mph - N/A   Scattered Clouds
11:55 AM 32.4 °F 24.0 °F 17.2 °F 54% 30.43 in 10.0 mi SW 10.4 mph - N/A   Clear
12:15 PM 32.7 °F 26.4 °F 17.4 °F 53% 30.42 in 10.0 mi SSW 6.9 mph - N/A   Clear
12:35 PM 33.4 °F 27.3 °F 18.7 °F 55% 30.41 in 10.0 mi SSW 6.9 mph - N/A   Clear
12:55 PM 33.8 °F 28.6 °F 18.3 °F 53% 30.41 in 10.0 mi SSW 5.8 mph - N/A   Clear
1:15 PM 34.9 °F 28.3 °F 19.2 °F 53% 30.40 in 10.0 mi SSW 8.1 mph - N/A   Scattered Clouds
1:35 PM 36.0 °F 31.1 °F 19.4 °F 51% 30.40 in 10.0 mi South 5.8 mph - N/A   Scattered Clouds
1:55 PM 35.8 °F 29.4 °F 18.7 °F 50% 30.39 in 10.0 mi SSW 8.1 mph - N/A   Clear
2:15 PM 36.3 °F 32.5 °F 20.1 °F 52% 30.39 in 10.0 mi SSW 4.6 mph - N/A   Clear
2:35 PM 37.4 °F 32.8 °F 20.7 °F 51% 30.39 in 10.0 mi SSW 5.8 mph - N/A   Clear
2:55 PM 37.0 °F 33.3 °F 20.3 °F 51% 30.40 in 10.0 mi SSW 4.6 mph - N/A   Clear
3:15 PM 37.2 °F 33.6 °F 20.7 °F 51% 30.40 in 10.0 mi SW 4.6 mph - N/A   Scattered Clouds
3:35 PM 37.2 °F 33.6 °F 21.2 °F 52% 30.40 in 10.0 mi SSW 4.6 mph - N/A   Mostly Cloudy
3:55 PM 37.0 °F 33.3 °F 21.4 °F 53% 30.40 in 10.0 mi SW 4.6 mph - N/A   Overcast
4:15 PM 36.0 °F 33.3 °F 24.6 °F 63% 30.41 in 10.0 mi WSW 3.5 mph - N/A   Scattered Clouds
4:35 PM 35.8 °F 33.0 °F 23.7 °F 62% 30.42 in 10.0 mi West 3.5 mph - N/A   Clear
4:55 PM 36.0 °F - 23.0 °F 59% 30.42 in 10.0 mi Calm Calm - N/A   Scattered Clouds
5:15 PM 34.7 °F - 26.4 °F 72% 30.41 in 10.0 mi Calm Calm - N/A   Overcast
5:35 PM 34.9 °F - 25.3 °F 68% 30.42 in 10.0 mi Calm Calm - N/A   Overcast
5:55 PM 34.0 °F - 27.7 °F 78% 30.42 in 10.0 mi Calm Calm - N/A   Overcast
6:15 PM 34.2 °F - 27.9 °F 78% 30.43 in 10.0 mi Calm Calm - N/A   Overcast
6:35 PM 33.8 °F - 28.9 °F 82% 30.44 in 10.0 mi Calm Calm - N/A   Overcast
6:55 PM 33.8 °F - 29.3 °F 84% 30.44 in 10.0 mi Calm Calm - N/A   Overcast
7:15 PM 33.8 °F 30.8 °F 28.4 °F 81% 30.44 in 10.0 mi North 3.5 mph - N/A   Overcast
7:35 PM 33.8 °F 30.8 °F 27.0 °F 76% 30.45 in 10.0 mi NNE 3.5 mph - N/A   Overcast
7:55 PM 34.0 °F 31.0 °F 26.2 °F 73% 30.45 in 10.0 mi NNE 3.5 mph - N/A   Overcast
8:15 PM 33.8 °F - 26.8 °F 75% 30.45 in 10.0 mi Calm Calm - N/A   Overcast
8:35 PM 33.3 °F 27.1 °F 26.4 °F 76% 30.46 in 7.0 mi North 6.9 mph - N/A Snow Light Snow
8:55 PM 32.5 °F 29.3 °F 27.0 °F 80% 30.46 in 7.0 mi NNW 3.5 mph - N/A Snow Light Snow
9:15 PM 32.4 °F - 27.5 °F 82% 30.46 in 10.0 mi Calm Calm - N/A Snow Light Snow
9:35 PM 32.2 °F - 28.2 °F 85% 30.46 in 10.0 mi Calm Calm - N/A   Overcast
9:55 PM 32.4 °F - 28.9 °F 87% 30.46 in 10.0 mi Calm Calm - N/A   Overcast
10:15 PM 32.4 °F - 28.6 °F 86% 30.46 in 10.0 mi Calm Calm - N/A   Overcast
10:35 PM 32.4 °F - 28.9 °F 87% 30.46 in 10.0 mi Calm Calm - N/A Snow Light Snow
10:55 PM 32.4 °F - 29.3 °F 88% 30.46 in 10.0 mi Calm Calm - N/A   Overcast
11:15 PM 32.4 °F - 28.6 °F 86% 30.46 in 10.0 mi Calm Calm - N/A   Overcast
11:35 PM 32.4 °F - 29.1 °F 88% 30.46 in 10.0 mi Calm Calm - N/A   Overcast
11:55 PM 32.4 °F - 29.1 °F 88% 30.46 in 10.0 mi Calm Calm - N/A   Overcast